| time (UTC) | temp C | wind direction | speed KPH | gust KPH | rain 1hr cm | rain 24hr cm | rain mn cm | humidity % | barometer mb |
| 20260504014548 | 4 | 244 | 0.0 | 0.0 | 0.00 | 0.00 | 0.00 | 64 | 1012.4 |
| 20260504013037 | 5 | 244 | 0.0 | 0.0 | 0.00 | 0.00 | 0.00 | 63 | 1012.5 |
| 20260504011526 | 5 | 244 | 0.0 | 0.0 | 0.00 | 0.00 | 0.00 | 62 | 1012.2 |
| 20260504010022 | 5 | 244 | 0.0 | 0.0 | 0.00 | 0.00 | 0.00 | 61 | 1012.0 |
| 20260504004522 | 6 | 244 | 0.0 | 0.0 | 0.00 | 0.00 | 0.00 | 59 | 1011.9 |
| 20260504003016 | 6 | 244 | 0.0 | 0.0 | 0.00 | 0.00 | 0.00 | 58 | 1011.8 |
| 20260504001512 | 7 | 244 | 0.0 | 0.0 | 0.00 | 0.00 | 0.00 | 57 | 1011.7 |
| 20260504000008 | 7 | 242 | 3.2 | 0.0 | 0.00 | 0.00 | 0.00 | 56 | 1011.8 |
| 20260503234504 | 7 | 267 | 3.2 | 0.0 | 0.00 | 0.00 | 0.00 | 55 | 1011.6 |
| 20260503233107 | 7 | 240 | 9.7 | 0.0 | 0.00 | 0.00 | 0.00 | 55 | 1011.6 |
| 20260503231558 | 8 | 252 | 12.9 | 0.0 | 0.00 | 0.00 | 0.00 | 53 | 1011.6 |
| 20260503230109 | 8 | 215 | 11.3 | 0.0 | 0.00 | 0.00 | 0.00 | 50 | 1011.5 |
| 20260503224556 | 8 | 266 | 3.2 | 0.0 | 0.00 | 0.00 | 0.00 | 49 | 1011.1 |
| 20260503223045 | 8 | 9 | 4.8 | 0.0 | 0.00 | 0.00 | 0.00 | 48 | 1011.2 |
| 20260503221539 | 8 | 232 | 8.0 | 0.0 | 0.00 | 0.00 | 0.00 | 45 | 1011.2 |
| 20260503220043 | 8 | 300 | 4.8 | 0.0 | 0.00 | 0.00 | 0.00 | 43 | 1011.1 |
| 20260503214536 | 8 | 246 | 4.8 | 0.0 | 0.00 | 0.00 | 0.00 | 42 | 1011.1 |
| 20260503213030 | 9 | 279 | 11.3 | 0.0 | 0.00 | 0.00 | 0.00 | 40 | 1011.0 |
| 20260503211525 | 9 | 254 | 6.4 | 0.0 | 0.00 | 0.00 | 0.00 | 39 | 1010.8 |
| 20260503210021 | 9 | 312 | 9.7 | 0.0 | 0.00 | 0.00 | 0.00 | 37 | 1010.9 |
| 20260503204516 | 10 | 302 | 8.0 | 0.0 | 0.00 | 0.00 | 0.00 | 34 | 1010.7 |
| 20260503203032 | 10 | 318 | 11.3 | 0.0 | 0.00 | 0.00 | 0.00 | 34 | 1011.0 |
| 20260503201507 | 9 | 288 | 9.7 | 0.0 | 0.00 | 0.00 | 0.00 | 35 | 1011.1 |
| 20260503200004 | 8 | 279 | 11.3 | 0.0 | 0.00 | 0.00 | 0.00 | 38 | 1011.1 |
| 20260503194501 | 8 | 337 | 9.7 | 0.0 | 0.00 | 0.00 | 0.00 | 39 | 1011.2 |
| 20260503193057 | 8 | 290 | 11.3 | 0.0 | 0.00 | 0.00 | 0.00 | 39 | 1011.5 |
| 20260503191553 | 8 | 340 | 8.0 | 0.0 | 0.00 | 0.00 | 0.00 | 40 | 1011.4 |
| 20260503190057 | 7 | 355 | 8.0 | 0.0 | 0.00 | 0.00 | 0.00 | 41 | 1011.6 |
| 20260503184545 | 7 | 281 | 8.0 | 0.0 | 0.00 | 0.00 | 0.00 | 41 | 1011.8 |
| 20260503183043 | 7 | 273 | 8.0 | 0.0 | 0.00 | 0.00 | 0.00 | 43 | 1012.0 |
| 20260503181538 | 7 | 355 | 9.7 | 0.0 | 0.00 | 0.00 | 0.00 | 43 | 1012.0 |
| 20260503180036 | 6 | 318 | 9.7 | 0.0 | 0.00 | 0.00 | 0.00 | 44 | 1012.1 |
| 20260503174528 | 6 | 332 | 8.0 | 0.0 | 0.00 | 0.00 | 0.00 | 47 | 1012.2 |
| 20260503173024 | 5 | 360 | 4.8 | 0.0 | 0.00 | 0.00 | 0.00 | 47 | 1012.5 |
| 20260503171520 | 5 | 267 | 1.6 | 0.0 | 0.00 | 0.00 | 0.00 | 50 | 1012.4 |
| 20260503081525 | 0 | 298 | 0.0 | 0.0 | 0.00 | 0.00 | 0.00 | 29 | 1012.5 |
| 20260503071501 | 0 | 298 | 0.0 | 0.0 | 0.00 | 0.00 | 0.00 | 22 | 1012.4 |
| 20260503060113 | -1 | 298 | 0.0 | 0.0 | 0.00 | 0.00 | 0.00 | 34 | 1013.0 |
| 20260503054601 | -1 | 298 | 0.0 | 0.0 | 0.00 | 0.00 | 0.00 | 35 | 1013.0 |
| 20260503053047 | -1 | 298 | 0.0 | 0.0 | 0.00 | 0.00 | 0.00 | 35 | 1013.0 |
| 20260503051545 | -1 | 298 | 0.0 | 0.0 | 0.00 | 0.00 | 0.00 | 37 | 1013.3 |
| 20260503050044 | -1 | 298 | 0.0 | 0.0 | 0.00 | 0.00 | 0.00 | 37 | 1013.6 |
| 20260503044542 | -1 | 298 | 0.0 | 0.0 | 0.00 | 0.00 | 0.00 | 41 | 1013.5 |
| 20260503043042 | -1 | 298 | 0.0 | 0.0 | 0.00 | 0.00 | 0.00 | 42 | 1013.5 |
| 20260503041545 | -1 | 298 | 0.0 | 0.0 | 0.00 | 0.00 | 0.00 | 45 | 1013.6 |
| 20260503040039 | -1 | 298 | 0.0 | 0.0 | 0.00 | 0.00 | 0.00 | 51 | 1013.6 |
| 20260503034535 | -1 | 298 | 0.0 | 0.0 | 0.00 | 0.00 | 0.03 | 54 | 1013.6 |
| 20260503033033 | 0 | 298 | 0.0 | 0.0 | 0.00 | 0.00 | 0.03 | 57 | 1013.7 |
| 20260503031526 | 0 | 298 | 0.0 | 0.0 | 0.00 | 0.00 | 0.03 | 60 | 1013.7 |
| 20260503030026 | 0 | 298 | 0.0 | 0.0 | 0.00 | 0.00 | 0.03 | 63 | 1013.7 |
| 20260503024520 | 0 | 298 | 0.0 | 0.0 | 0.00 | 0.00 | 0.03 | 65 | 1013.7 |
| 20260503023015 | 0 | 298 | 0.0 | 0.0 | 0.00 | 0.00 | 0.03 | 66 | 1013.8 |
| 20260503021511 | 1 | 298 | 0.0 | 0.0 | 0.00 | 0.00 | 0.03 | 66 | 1013.9 |
| 20260503020007 | 1 | 298 | 0.0 | 0.0 | 0.00 | 0.00 | 0.03 | 66 | 1013.8 |